Notices

What's New in latest Release from April 7th, 2021:

- Updated Glossary, including Speed of Maximum Gust, and Total Hourly Precipitation

- Updated national and regional climate services offices contacts and prices information

- Addition of station inventory lists for 1981-2010, 1971-2000, and 1961-1990 Normals.

If you haven't already, please take our survey and provide feedback about our website: https://eccc.sondage-survey.ca/f/LanguageSelection.aspx?s=442ca660-fcf1-47c0-95a9-59707d6fd709

Hourly Data Report for November 13, 2020

SHEARWATER RCS
NOVA SCOTIA
Current Station Operator: ECCC - MSC

44°37'47.000" N
63°30'48.000" W
24.00 m
8205092
71264
AAW

Download Data

Hourly Data (November 2020)
Hourly Data Report for November 13, 2020
TIME
LST
Temp Definition
°C
Dew Point Definition
°C
Rel Hum Definition
%
Precip. Amount Definition
mm

Wind Dir Definition
10's deg

Wind Spd Definition
km/h
Visibility Definition
km
Stn Press Definition
kPa
Hmdx Definition


Wind Chill Definition


Weather Definition


00:00 8.4 7.4 93 1.6 1 13   101.21     LegendNANA
01:00 8.3 7.3 94 0.8 36 8   101.22     LegendNANA
02:00 7.9 6.5 91 0.2 2 13   101.29     LegendNANA
03:00 7.3 6.2 93 0.3 36 7   101.47     LegendNANA
04:00 7.0 5.0 87 0.0 1 14   101.56     LegendNANA
05:00 6.2 4.2 87 0.0 35 13   101.63     LegendNANA
06:00 4.7 3.1 89 0.0 35 9   101.70     LegendNANA
07:00 3.8 2.5 91 0.0 36 4   101.70     LegendNANA
08:00 4.3 1.9 85 0.0 1 12   101.70     LegendNANA
09:00 4.7 2.0 83 0.0 36 11   101.75     LegendNANA
10:00 6.7 3.1 78 0.0 2 16   101.73     LegendNANA
11:00 6.6 2.8 77 0.0 4 15   101.69     LegendNANA
12:00 6.7 3.0 78 0.0 5 15   101.59     LegendNANA
13:00 6.8 3.3 78 0.0 6 13   101.56     LegendNANA
14:00 7.1 3.8 80 0.0 5 11   101.53     LegendNANA
15:00 7.3 3.6 77 0.0 6 12   101.37     LegendNANA
16:00 7.2 3.7 78 0.0 6 14   101.34     LegendNANA
17:00 6.5 4.1 84 0.0 7 11   101.25     LegendNANA
18:00 6.6 4.0 84 0.2 7 13   101.11     LegendNANA
19:00 6.7 4.0 83 0.0 6 12   101.00     LegendNANA
20:00 6.6 5.0 90 0.3 6 16   100.82     LegendNANA
21:00 5.6 4.9 95 1.1 5 15   100.70     LegendNANA
22:00 5.8 5.1 95 0.8 3 10   100.72     LegendNANA
23:00 5.4 4.7 96 1.7 2 11   100.59     LegendNANA

Notes on Data Quality.

Legend

  • E = Estimated
  • M = Missing
  • NA = Not Available*
  • [empty] = Indicates an unobserved value
Date modified: